Fort Myers, FL

12:50 PM EDT on March 28, 2017 (GMT -0400)
Page

Weather History for KFMY - March, 2011

Change the Weather History Date:

Thursday, March 10, 2011

  Actual Average Record
Temperature  
Mean Temperature 63 °F 69 °F  
Max Temperature 70 °F 80 °F 90 °F (1997)
Min Temperature 56 °F 59 °F 40 °F (1914)
Degree Days  
Heating Degree Days 2 1  
Month to date heating degree days 2 10  
Since 1 July heating degree days 422 270  
Cooling Degree Days 0 5  
Month to date cooling degree days 54 50  
Year to date cooling degree days 236 235  
Growing Degree Days 14 (Base 50)    
Moisture  
Dew Point 59 °F    
Average Humidity 84    
Maximum Humidity 93    
Minimum Humidity 60    
Precipitation  
Precipitation 0.77 in 0.11 in 1.44 in (1986)
Month to date precipitation 0.80 0.92  
Year to date precipitation 4.21 5.01  
Sea Level Pressure  
Sea Level Pressure 30.09 in    
Wind  
Wind Speed 8 mph (North)    
Max Wind Speed 29 mph    
Max Gust Speed 37 mph    
Visibility 9 miles    
Events Rain , Thunderstorm    
T = Trace of Precipitation, MM = Missing Value Source: NWS Daily Summary

Daily Weather History Graph

Daily Weather History Graph

Search for Another Location

Airport or City:

Trip Planner

Search our weather history database for the weather conditions in past years. The results will help you decide how hot, cold, wet, or windy it might be!

Date:

Astronomy

Mar. 10, 2011 Rise Set
Actual Time 6:42 AM EST 6:33 PM EST
Civil Twilight 6:19 AM EST 6:56 PM EST
Nautical Twilight 5:52 AM EST 7:23 PM EST
Astronomical Twilight 5:25 AM EST 7:50 PM EST
Moon 9:48 AM EST (3/10) 11:48 PM EST (3/10)
Length of Visible Light 12h 37m
Length of Day
11h 51m
Waxing Crescent, 28% of the Moon is Illuminated
Mar 10
Waxing Crescent
Mar 12
First Quarter
Mar 19
Full
Mar 26
Last Quarter
Apr 3
New

Hourly Weather History & Observations

Time (EST) Temp. Dew Point Humidity Pressure Visibility Wind Dir Wind Speed Gust Speed Precip Events Conditions
12:53 AM 68.0 °F 63.0 °F 84% 30.09 in 10.0 mi SE 3.5 mph - N/A   Clear
1:53 AM 66.9 °F 64.0 °F 90% 30.05 in 10.0 mi SSE 6.9 mph - N/A   Clear
2:53 AM 66.9 °F 64.0 °F 90% 30.05 in 10.0 mi East 3.5 mph - N/A   Overcast
3:30 AM 66.2 °F 64.4 °F 94% 30.06 in 10.0 mi North 5.8 mph - N/A   Overcast
3:48 AM 68.0 °F 64.4 °F 88% 30.06 in 10.0 mi Calm Calm - N/A   Overcast
3:53 AM 69.1 °F 64.0 °F 84% 30.07 in 10.0 mi North 4.6 mph - N/A   Overcast
4:53 AM 64.0 °F 60.1 °F 87% 30.07 in 8.0 mi NE 8.1 mph - 0.07 in Rain Light Rain
5:42 AM 62.6 °F 60.8 °F 94% 30.06 in 9.0 mi East 10.4 mph - 0.01 in Rain Light Rain
5:53 AM 63.0 °F 59.0 °F 87% 30.06 in 10.0 mi East 8.1 mph - 0.02 in Rain Light Rain
6:35 AM 62.6 °F 59.0 °F 88% 30.08 in 10.0 mi NE 3.5 mph - 0.00 in   Mostly Cloudy
6:53 AM 62.1 °F 59.0 °F 90% 30.08 in 10.0 mi ESE 5.8 mph - 0.00 in   Overcast
7:13 AM 62.6 °F 60.8 °F 94% 30.08 in 10.0 mi ESE 3.5 mph - N/A   Mostly Cloudy
7:53 AM 64.0 °F 60.1 °F 87% 30.08 in 10.0 mi ESE 4.6 mph - N/A   Mostly Cloudy
8:53 AM 66.0 °F 61.0 °F 84% 30.14 in 10.0 mi NW 8.1 mph - 0.00 in   Overcast
8:59 AM 62.6 °F 59.0 °F 88% 30.16 in 1.8 mi NNW 18.4 mph 36.8 mph 0.01 in Rain Heavy Rain
9:01 AM 60.8 °F 57.2 °F 88% 30.15 in 0.8 mi WNW 8.1 mph 36.8 mph 0.04 in Rain Heavy Rain
9:17 AM 60.8 °F 57.2 °F 88% 30.16 in 1.0 mi North 12.7 mph 24.2 mph 0.52 in Rain , Thunderstorm Heavy Thunderstorms and Rain
9:26 AM 60.8 °F 57.2 °F 88% 30.16 in 2.0 mi North 10.4 mph - 0.63 in Rain , Thunderstorm Heavy Thunderstorms and Rain
9:30 AM 60.8 °F 57.2 °F 88% 30.16 in 3.0 mi NNW 8.1 mph - 0.63 in Rain , Thunderstorm Rain
9:53 AM 62.1 °F 59.0 °F 90% 30.14 in 9.0 mi NE 8.1 mph - 0.65 in Rain , Thunderstorm Light Thunderstorms and Rain
10:09 AM 62.6 °F 59.0 °F 88% 30.12 in 10.0 mi NE 5.8 mph - 0.01 in Rain Light Rain
10:29 AM 62.6 °F 60.8 °F 94% 30.13 in 10.0 mi East 4.6 mph - 0.01 in Rain , Thunderstorm Light Rain
10:44 AM 62.6 °F 60.8 °F 94% 30.13 in 10.0 mi East 3.5 mph - 0.01 in Rain Light Rain
10:53 AM 62.1 °F 60.1 °F 93% 30.14 in 10.0 mi ENE 5.8 mph - 0.02 in Rain Light Rain
11:53 AM 64.0 °F 61.0 °F 90% 30.15 in 10.0 mi Calm Calm - 0.00 in Rain Light Rain
12:53 PM 64.9 °F 62.1 °F 90% 30.05 in 10.0 mi SSE 10.4 mph - 0.01 in Rain Light Rain
1:10 PM 64.4 °F 62.6 °F 94% 30.05 in 10.0 mi South 11.5 mph - 0.00 in   Overcast
1:53 PM 66.0 °F 62.1 °F 87% 30.06 in 10.0 mi South 9.2 mph - 0.00 in Rain Light Rain
2:53 PM 66.9 °F 62.1 °F 84% 30.04 in 10.0 mi WSW 9.2 mph - 0.00 in   Clear
3:53 PM 70.0 °F 60.1 °F 71% 30.02 in 10.0 mi West 13.8 mph - N/A   Clear
4:53 PM 69.1 °F 61.0 °F 75% 30.02 in 10.0 mi West 12.7 mph - N/A   Overcast
5:26 PM 69.8 °F 62.6 °F 78% 30.01 in 10.0 mi West 11.5 mph - N/A   Mostly Cloudy
5:53 PM 66.9 °F 63.0 °F 87% 30.03 in 10.0 mi West 11.5 mph - N/A   Overcast
6:21 PM 66.2 °F 60.8 °F 83% 30.03 in 9.0 mi NW 12.7 mph - N/A   Overcast
6:35 PM 66.2 °F 59.0 °F 78% 30.04 in 10.0 mi NW 10.4 mph - N/A   Overcast
6:53 PM 64.9 °F 55.0 °F 70% 30.05 in 10.0 mi NW 13.8 mph 21.9 mph N/A   Overcast
7:31 PM 62.6 °F 51.8 °F 68% 30.06 in 10.0 mi NW 13.8 mph - N/A   Scattered Clouds
7:53 PM 62.1 °F 48.0 °F 60% 30.08 in 10.0 mi NW 11.5 mph - N/A   Clear
8:53 PM 57.9 °F 46.9 °F 67% 30.11 in 10.0 mi NNW 5.8 mph - N/A   Clear
9:53 PM 57.9 °F 48.0 °F 70% 30.12 in 10.0 mi North 5.8 mph - N/A   Clear
10:53 PM 57.0 °F 48.0 °F 72% 30.12 in 10.0 mi North 8.1 mph - N/A   Clear
11:53 PM 55.9 °F 48.0 °F 75% 30.13 in 10.0 mi North 8.1 mph - N/A   Clear